DL9GJ-4 Weather Reports


time (UTC)temp
C
wind
direction
speed
KPH
gust
KPH
rain 1hr
cm
rain 24hr
cm
rain mn
cm
humidity
%
barometer
mb
20260903075311 17 201 3.2 3.2 0.00 0.00 0.00 43 1022.0
20260903074104 17 177 3.2 3.2 0.00 0.00 0.00 50 1022.0
20260903073500 16 173 0.0 3.2 0.00 0.00 0.00 51 1022.0
20260903072859 16 173 0.0 0.0 0.00 0.00 0.00 52 1022.0
20260903071658 15 173 0.0 0.0 0.00 0.00 0.00 52 1022.0
20260903071052 15 173 0.0 0.0 0.00 0.00 0.00 53 1022.0
20260903070450 15 173 0.0 0.0 0.00 0.00 0.00 54 1022.0
20260903065848 15 173 0.0 0.0 0.00 0.00 0.00 53 1022.0
20260903065247 14 172 0.0 0.0 0.00 0.00 0.00 53 1022.0
20260903064044 13 172 0.0 0.0 0.00 0.00 0.00 53 1022.0
20260903063451 13 173 0.0 0.0 0.00 0.00 0.00 53 1022.0
20260903063444 13 173 0.0 0.0 0.00 0.00 0.00 53 1022.0
20260903062843 13 172 0.0 0.0 0.00 0.00 0.00 52 1022.0
20260903062243 13 173 0.0 0.0 0.00 0.00 0.00 51 1022.0
20260903060438 12 173 0.0 0.0 0.00 0.00 0.00 51 1022.0
20260903054033 11 174 0.0 0.0 0.00 0.00 0.00 50 1022.0
20260903053429 11 172 0.0 0.0 0.00 0.00 0.00 50 1022.0
20260903052826 11 172 3.2 4.8 0.00 0.00 0.00 49 1022.0
20260903051619 11 174 0.0 3.2 0.00 0.00 0.00 49 1022.0
20260903051018 11 173 3.2 3.2 0.00 0.00 0.00 48 1022.0
20260903041614 11 173 4.8 4.8 0.00 0.00 0.00 46 1021.0
20260903041013 11 173 0.0 0.0 0.00 0.00 0.00 46 1021.0
20260903040410 11 172 0.0 0.0 0.00 0.00 0.00 46 1021.0
20260903034605 11 173 3.2 4.8 0.00 0.00 0.00 46 1021.0
20260903034003 11 173 3.2 3.2 0.00 0.00 0.00 45 1021.0
20260903032204 12 174 4.8 4.8 0.00 0.00 0.00 44 1021.0
20260903031559 12 173 0.0 0.0 0.00 0.00 0.00 44 1021.0
20260903030957 12 173 0.0 0.0 0.00 0.00 0.00 44 1021.0
20260903025755 12 173 0.0 3.2 0.00 0.00 0.00 43 1021.0
20260903024549 12 173 0.0 3.2 0.00 0.00 0.00 42 1021.0
20260903023947 12 173 0.0 0.0 0.00 0.00 0.00 42 1021.0
20260903023345 12 173 0.0 0.0 0.00 0.00 0.00 42 1021.0
20260903022138 13 173 0.0 0.0 0.00 0.00 0.00 42 1021.0
20260903021535 13 173 0.0 4.8 0.00 0.00 0.00 41 1021.0
20260903020932 13 172 0.0 0.0 0.00 0.00 0.00 41 1021.0
20260903020326 13 173 0.0 0.0 0.00 0.00 0.00 41 1021.0
20260903015133 12 173 4.8 4.8 0.00 0.00 0.00 40 1021.0
20260903015124 12 173 4.8 4.8 0.00 0.00 0.00 40 1021.0
20260903013321 12 173 0.0 0.0 0.00 0.00 0.00 38 1021.0
20260903010320 13 173 0.0 0.0 0.00 0.00 0.00 36 1021.0
20260903005719 13 173 0.0 0.0 0.00 0.00 0.00 36 1021.0
20260903002715 13 173 4.8 4.8 0.00 0.00 0.00 35 1021.0
20260903001506 15 173 0.0 0.0 0.00 0.00 0.00 35 1021.0
20260903000905 15 173 0.0 0.0 0.00 0.00 0.00 35 1021.0
20260903000303 15 174 0.0 0.0 0.00 0.00 0.00 35 1021.0
20260902235058 15 172 0.0 0.0 0.00 0.00 0.00 35 1021.0
20260902234457 15 172 0.0 0.0 0.00 0.00 0.00 36 1021.0
20260902232653 15 173 0.0 0.0 0.00 0.00 0.00 36 1021.0
20260902231445 14 172 0.0 0.0 0.00 0.00 0.00 36 1021.0
20260902230241 14 173 0.0 0.0 0.00 0.00 0.00 34 1021.0
20260902225040 15 174 0.0 0.0 0.00 0.00 0.00 34 1021.0
20260902224436 15 173 0.0 0.0 0.00 0.00 0.00 33 1021.0
20260902223833 15 173 0.0 0.0 0.00 0.00 0.00 32 1021.0
20260902223230 15 173 0.0 0.0 0.00 0.00 0.00 32 1021.0
20260902222624 15 172 0.0 0.0 0.00 0.00 0.00 31 1021.0
20260902222022 15 174 0.0 0.0 0.00 0.00 0.00 31 1021.0
20260902221421 15 172 0.0 0.0 0.00 0.00 0.00 30 1021.0
20260902220222 15 172 0.0 3.2 0.00 0.00 0.00 29 1021.0
20260902215618 15 172 0.0 0.0 0.00 0.00 0.00 28 1021.0
20260902215016 15 173 0.0 0.0 0.00 0.00 0.00 27 1021.0
20260902214417 15 173 0.0 0.0 0.00 0.00 0.00 27 1021.0
20260902212607 16 174 0.0 0.0 0.00 0.00 0.00 25 1021.0
20260902212007 16 173 0.0 0.0 0.00 0.00 0.00 24 1021.0
20260902211404 16 173 0.0 0.0 0.00 0.00 0.00 24 1021.0
20260902205553 17 173 0.0 0.0 0.00 0.00 0.00 24 1021.0
20260902204348 17 173 0.0 0.0 0.00 0.00 0.00 23 1021.0
20260902203144 18 172 0.0 0.0 0.00 0.00 0.00 20 1020.0
20260902201942 18 173 4.8 4.8 0.00 0.00 0.00 20 1020.0
20260902201337 18 174 3.2 3.2 0.00 0.00 0.00 20 1020.0
20260902200736 18 175 0.0 0.0 0.00 0.00 0.00 17 1021.0
20260902194929 19 174 3.2 4.8 0.00 0.00 0.00 17 1020.0
20260902194330 19 174 4.8 4.8 0.00 0.00 0.00 17 1020.0
20260902193125 19 169 4.8 6.4 0.00 0.00 0.00 17 1020.0
20260902191920 18 169 3.2 3.2 0.00 0.00 0.00 20 1020.0
20260902191316 18 169 4.8 4.8 0.00 0.00 0.00 20 1020.0
20260902190712 18 169 4.8 4.8 0.00 0.00 0.00 22 1020.0
20260902183701 17 169 0.0 3.2 0.00 0.00 0.00 23 1020.0
20260902183058 17 169 0.0 0.0 0.00 0.00 0.00 20 1020.0
20260902182458 18 169 0.0 0.0 0.00 0.00 0.00 20 1020.0
20260902181255 18 169 0.0 3.2 0.00 0.00 0.00 20 1020.0
20260902180653 18 169 0.0 0.0 0.00 0.00 0.00 20 1020.0
20260902180049 18 169 0.0 0.0 0.00 0.00 0.00 20 1020.0
20260902175444 19 169 0.0 0.0 0.00 0.00 0.00 20 1020.0
20260902174239 19 169 3.2 3.2 0.00 0.00 0.00 20 1020.0
20260902173033 20 168 0.0 3.2 0.00 0.00 0.00 17 1019.0
20260902171222 20 169 4.8 4.8 0.00 0.00 0.00 17 1019.0
20260902170622 20 169 4.8 4.8 0.00 0.00 0.00 14 1019.0
20260902170018 20 169 4.8 4.8 0.00 0.00 0.00 14 1019.0
20260902163608 21 169 0.0 3.2 0.00 0.00 0.00 14 1019.0
20260902163009 21 168 4.8 4.8 0.00 0.00 0.00 14 1019.0
20260902162405 21 168 4.8 4.8 0.00 0.00 0.00 14 1019.0
20260902161203 22 168 3.2 4.8 0.00 0.00 0.00 14 1019.0
20260902160000 22 154 3.2 4.8 0.00 0.00 0.00 16 1019.0
20260902155357 21 154 3.2 3.2 0.00 0.00 0.00 16 1019.0
20260902154151 22 154 3.2 4.8 0.00 0.00 0.00 16 1019.0
20260902153549 22 153 4.8 4.8 0.00 0.00 0.00 16 1019.0
20260902152946 22 293 4.8 4.8 0.00 0.00 0.00 16 1019.0
20260902152342 22 175 0.0 6.4 0.00 0.00 0.00 16 1019.0
20260902151137 22 186 4.8 4.8 0.00 0.00 0.00 13 1019.0
20260902145325 22 170 4.8 4.8 0.00 0.00 0.00 16 1019.0
20260902144720 22 153 4.8 4.8 0.00 0.00 0.00 16 1019.0
20260902144116 22 143 3.2 4.8 0.00 0.00 0.00 16 1019.0
20260902142914 22 191 3.2 4.8 0.00 0.00 0.00 13 1019.0
20260902142309 23 281 3.2 4.8 0.00 0.00 0.00 13 1019.0
20260902134655 24 342 4.8 4.8 0.00 0.00 0.00 15 1019.0
20260902132843 23 179 3.2 4.8 0.00 0.00 0.00 13 1019.0
20260902132242 23 155 4.8 4.8 0.00 0.00 0.00 13 1019.0
20260902131037 24 288 4.8 4.8 0.00 0.00 0.00 13 1020.0
20260902130436 24 156 4.8 4.8 0.00 0.00 0.00 13 1020.0
20260902125835 23 156 4.8 4.8 0.00 0.00 0.00 13 1020.0
20260902123427 23 224 3.2 4.8 0.00 0.00 0.00 15 1020.0
20260902121019 23 272 4.8 4.8 0.00 0.00 0.00 13 1020.0
20260902120417 23 225 4.8 6.4 0.00 0.00 0.00 15 1020.0
20260902115212 23 144 3.2 4.8 0.00 0.00 0.00 18 1020.0
20260902112807 22 204 0.0 4.8 0.00 0.00 0.00 21 1020.0
20260902112205 22 192 3.2 3.2 0.00 0.00 0.00 23 1020.0
20260902105154 21 207 4.8 4.8 0.00 0.00 0.00 24 1021.0
20260902103950 21 275 3.2 3.2 0.00 0.00 0.00 32 1021.0
20260902103342 20 174 3.2 4.8 0.00 0.00 0.00 29 1021.0
20260902102740 20 177 3.2 3.2 0.00 0.00 0.00 27 1021.0
20260902100931 21 212 3.2 3.2 0.00 0.00 0.00 27 1021.0
20260902100328 21 188 0.0 3.2 0.00 0.00 0.00 28 1021.0
20260902095725 20 243 0.0 3.2 0.00 0.00 0.00 30 1021.0
20260902095123 20 274 3.2 3.2 0.00 0.00 0.00 30 1020.0
20260902094520 20 275 0.0 3.2 0.00 0.00 0.00 31 1020.0
20260902093917 20 274 3.2 3.2 0.00 0.00 0.00 29 1020.0
20260902092108 20 169 3.2 4.8 0.00 0.00 0.00 32 1020.0
20260902090902 20 191 0.0 0.0 0.00 0.00 0.00 39 1020.0
20260902090301 19 192 0.0 0.0 0.00 0.00 0.00 39 1020.0
20260902085659 19 191 0.0 0.0 0.00 0.00 0.00 40 1020.0
20260902085056 19 192 0.0 0.0 0.00 0.00 0.00 41 1020.0
20260902084454 19 192 0.0 0.0 0.00 0.00 0.00 43 1020.0
20260902082045 18 191 0.0 3.2 0.00 0.00 0.00 52 1020.0
20260902081442 18 191 3.2 3.2 0.00 0.00 0.00 57 1020.0
20260902080238 17 192 0.0 0.0 0.00 0.00 0.00 60 1020.0